"date","CH4_mean","count","CH4_sd","CH4_se","inv_CH4_mean","inv_CH4_sd","inv_CH4_se","d13CH4_mean","d13Ch4_sd","d13Ch4_se","CO2_mean","CO2_sd","C2H6_mean","C2H6_sd","C2C1_mean","C2C1_sd","H2O_mean","H2O_sd","Ubar","Wbar","Tbar","sigmau","sigmav","sigmaw","sigmaT","WindDirection_rad","HeatFlux","ustar","MOLength","Uscalar","n","WindDirection_Deg","source","inv_CH4_se_mean","d13Ch4_se_mean"
"2020-01-15 11:02:00",3.93321717518221,61,0.00799066036909241,0.00102309922226203,0.254245829281429,0.000516873457588469,6.61788648297556e-05,-45.4870629809904,1.79378437938174,0.229670555208404,647.250929263985,12.9270405895554,-0.00791147540983607,0.00533326348997984,-0.00200491803278689,0.0013588507680522,0.975177049180328,0.00112818341337198,2.545441474,-0.010539882,10.39940138,0.454214398,0.46386672,0.228176621,0.340634393,2.022222567,0.021929374,0.045134851,-0.302976915,2.59077746,1199,115.864818325211,"freestall lanes",0.000968938473368082,0.3209
"2020-01-15 11:32:00",21.5302503440199,58,0.191236619886764,0.0251105983894816,0.0464498822012893,0.000412871930086852,5.42127403676134e-05,-52.2590596120301,0.466934840802721,0.0613115483237277,1000.38705920386,8.4289033140074,-0.0146137931034483,0.00552097907271483,-0.000675862068965517,0.000253612734770456,0.991151724137931,0.000889163095435447,1.673259255,0.055816005,11.27536302,0.319698734,0.741838568,0.306925845,0.322147471,3.160640552,0.050898306,0.246509653,-21.33230488,1.824510284,1201,181.091364187499,"freestall lanes",0.000968938473368082,0.3209
"2020-01-15 11:33:00",16.1420214621514,59,3.61801126050693,0.471024945921755,0.0651833757566675,0.0148253471054394,0.00193009579456986,-51.5516470509455,0.512873035780232,0.0667703819996575,860.952509578628,113.915782877649,-0.0139406779661017,0.00652158534364967,-0.000901694915254237,0.000465162754395865,0.986835593220339,0.00820699371041016,2.403588732,-0.06212253,11.03294493,0.27892289,0.379748871,0.256904731,0.35498557,2.378290049,0.034188369,0.121913278,-3.838341937,2.433771153,1199,136.265982265662,"freestall lanes",0.000968938473368082,0.3209
"2020-01-15 11:34:00",13.648155312124,60,1.51320418150335,0.195353819812464,0.0740847526580752,0.00751171569113311,0.000969758325773449,-51.4507443463969,0.77178801799081,0.0996374046826945,757.187388423712,92.225770189573,-0.0133183333333333,0.00480047637702006,-0.000985,0.000369068915524973,0.950033333333333,0.00950453355994339,2.49859618,0.008454831,10.89658367,0.413315025,0.36636781,0.229007692,0.322294877,2.4243456,0.028689611,0.079247135,-1.255702068,2.524684591,1200,138.904770961111,"freestall lanes",0.000968938473368082,0.3209
"2020-01-15 11:35:00",12.1721753626204,59,2.81139337528474,0.366012241867022,0.0862017934195082,0.0180122562704649,0.00234499602815934,-49.0074968331939,0.879334879403229,0.114479650336961,924.015882684607,97.8748821743109,-0.0126305084745763,0.00485738876342679,-0.00106271186440678,0.000440571065575494,0.944703389830508,0.00256535042317574,1.803047423,0.024023445,10.78022933,0.25511552,0.329592114,0.194029497,0.275768887,2.631260774,0.032947623,0.128569485,-4.667370278,1.832854319,1201,150.760137148526,"freestall lanes",0.000968938473368082,0.3209
"2020-01-15 11:36:00",10.1891334199593,61,1.40968026174077,0.180491062416277,0.0998218996372595,0.0124110816768818,0.00158907617450027,-48.7883342462629,0.747790831850612,0.0957448049525772,799.791029335288,54.7862792887505,-0.0127098360655738,0.00482043237749592,-0.00127540983606557,0.000510442859258807,0.944086885245902,0.00129479411617396,1.139050381,-0.048818381,10.87773765,0.408883498,0.2249639,0.217058554,0.302572482,2.897363054,0.015968235,0.142229343,-13.041948,1.159544846,1199,166.006674711335,"freestall lanes",0.000968938473368082,0.3209
"2020-01-15 11:37:00",12.1514536123022,60,1.54390011906401,0.199316648311418,0.08362611465744,0.0107014159953843,0.00138154686436537,-47.7142536396046,0.879533875741382,0.113547335105721,967.487808685544,8.74413869429899,-0.0143416666666667,0.00438225588785806,-0.00119166666666667,0.000381029678396853,0.959038333333333,0.00560970985281489,1.690762026,-0.145156745,10.8958327,0.456887794,0.539900065,0.266518172,0.195483015,2.775252225,0.020663819,0.138031515,-9.212629504,1.774308399,1201,159.010239576791,"freestall lanes",0.000968938473368082,0.3209
"2020-01-15 11:38:00",10.0675362336945,59,0.134530294401267,0.0175143525220306,0.0993465923724408,0.00132651697802783,0.000172697800767017,-47.2559087719538,0.867093350162171,0.112885938976327,878.992768344638,40.4432159194103,-0.0145389830508475,0.00493942677635959,-0.00143898305084746,0.00049236128771341,0.964084745762712,0.00326812260560761,1.237995697,-0.10945578,11.32602886,0.268844841,0.287110525,0.26732129,0.305233044,2.838273428,0.048528518,0.143664757,-4.429659855,1.268703599,1199,162.621088528528,"freestall lanes",0.000968938473368082,0.3209
"2020-01-15 11:39:00",9.43913638936296,60,0.258373408400744,0.033355863594631,0.106019148383445,0.00287088195155538,0.000370629266243381,-46.4166289545564,0.904623522662686,0.116786394595336,915.416784390847,44.7246218949128,-0.01481,0.00556218162295872,-0.00156333333333333,0.000588294480239468,0.95462,0.00141502829821376,1.725370428,0.056914093,11.14348402,0.407032575,0.343466616,0.244411392,0.506500451,3.094944712,0.069288392,0.191064226,-7.29315702,1.758163436,1200,177.327269823932,"freestall lanes",0.000968938473368082,0.3209
"2020-01-15 11:40:00",10.7330417687362,60,0.36958450715578,0.047713154707687,0.0932801078209698,0.00324639484577865,0.000419107772430477,-46.4080000035932,0.804615968939172,0.103875474926465,1008.06005295881,14.4976098250239,-0.0162966666666667,0.00450788261268165,-0.00151333333333333,0.000418822670564203,0.96048,0.00324454170068094,1.003581242,0.22265847,11.85858548,0.297648121,0.749312201,0.237183357,0.382290085,2.812666775,0.016699722,0.11993628,-7.503630199,1.248194392,1201,161.153935384172,"freestall lanes",0.000968938473368082,0.3209
"2020-01-15 11:41:00",13.6333334703515,60,2.40060223340992,0.309916415695498,0.0757852355748445,0.014146694975331,0.0018263304681111,-47.0810105049605,0.939356591291229,0.121270414474037,1103.45231755089,23.0431741977611,-0.0159933333333333,0.00439930143401707,-0.00121333333333333,0.000447011419361461,0.966763333333333,0.00181472009950516,2.164455763,0.090554795,11.68005303,0.647832315,0.518454278,0.295264839,0.518700326,2.866805293,0.046468191,0.237629482,-20.96051794,2.239797028,1199,164.255843974665,"freestall lanes",0.000968938473368082,0.3209
"2020-01-15 11:42:00",13.6363082189928,57,0.531285981965278,0.0703705473968086,0.0734462434452253,0.00294534020254419,0.000390119840083429,-47.8961321005238,0.615083926614661,0.0814698563111739,993.14015490412,37.2384564969296,-0.0154157894736842,0.00395726228749499,-0.00112456140350877,0.000301354502771822,0.968175438596491,0.00276012944195392,2.497606334,0.008425175,11.18356245,0.391437571,0.375501699,0.288080656,0.474558707,2.824447072,0.080032951,0.106140444,-1.082612383,2.526081409,1200,161.828896683683,"freestall lanes",0.000968938473368082,0.3209
"2020-01-15 11:43:00",11.439254008954,55,0.379004178560259,0.0511049130116641,0.0875121560179609,0.00288665097355722,0.000389235937870332,-47.4328780837747,0.76594318285818,0.103279757707529,907.882202813996,29.1704273663607,-0.01642,0.00473725971735028,-0.00143636363636364,0.000439428769082821,0.970356363636364,0.00167705248889385,2.080847351,-0.096153972,10.86213491,0.316181602,0.204521526,0.225262382,0.252975345,2.749306173,0.030471877,0.158292589,-9.420857408,2.091948267,1201,157.523640302164,"freestall lanes",0.000968938473368082,0.3209
"2020-01-15 11:44:00",11.6549167807263,58,0.662390578152815,0.0869761439771354,0.0860800380349502,0.0050040999994626,0.000657070520602773,-48.0902634348481,0.655802194691942,0.0861110468465761,837.546124657348,11.9959341469974,-0.0164258620689655,0.00624105142808563,-0.00141551724137931,0.000567790956138752,0.968175862068966,0.00101364555638279,1.335988318,-0.040543104,10.84795964,0.201254937,0.176575407,0.21195755,0.282015615,2.658551036,0.041159413,0.129092279,-3.782838967,1.349161807,1199,152.323753982933,"freestall lanes",0.000968938473368082,0.3209
"2020-01-15 11:45:00",11.0065913875402,59,0.209058990513165,0.0272171623056593,0.0908870365267485,0.0017347189239347,0.000225841167564885,-47.6923903461931,0.613392794821154,0.07985693996125,900.164225284441,45.3331940700074,-0.0164169491525424,0.00543529818813298,-0.00148983050847458,0.000508444183779009,0.970984745762712,0.00438845717761563,1.499722488,-0.051644979,11.01534769,0.344056542,0.51834768,0.254756369,0.240340219,2.551007637,0.032185962,0.072622877,-0.861779142,1.599152976,1200,146.161971105741,"freestall lanes",0.000968938473368082,0.3209
"2020-01-15 11:46:00",11.2686202824022,60,0.0159547990901464,0.00205975570560741,0.0887421836143128,0.000125578173458112,1.62120724816805e-05,-47.6996341824564,0.73062415090423,0.0943231722929672,993.337631032553,5.33457585610547,-0.0159966666666667,0.0047707074650951,-0.00141,0.000424144203172395,0.9866,0.00380445768869687,1.730242323,0.022597683,11.16175236,0.32849371,0.363639298,0.296644616,0.456241066,2.581062823,0.083764741,0.190722779,-6.000842934,1.767742457,1201,147.884006416022,"freestall lanes",0.000968938473368082,0.3209
"2020-01-15 11:47:00",11.3608872036303,60,0.0994538372165567,0.0128394351752049,0.0880278958928639,0.000766877199262213,9.90034207109579e-05,-47.6918246242815,0.67955607571588,0.087730312135389,1006.93286789434,6.52758076937589,-0.0156933333333333,0.00482893351269786,-0.00137333333333333,0.000409988287003697,0.99642,0.00204033895489143,0.81976462,0.011030943,11.17693461,0.221790254,0.548882469,0.25009839,0.357142539,2.594704462,0.046782323,0.200603947,-12.50332843,0.979244709,1199,148.665614756363,"freestall lanes",0.000968938473368082,0.3209
"2020-01-15 11:48:00",11.6357871913285,59,0.0482329896120123,0.00627940039093727,0.0859432130617875,0.000357222460792276,4.65064031484365e-05,-48.2388225646817,0.626262432745837,0.081532424107382,1024.90324284291,3.54663961170946,-0.0135915254237288,0.00503060591865684,-0.00116779661016949,0.000436064167204031,1.0009813559322,0.00107886827297791,1.400016684,0.010485675,11.21813456,0.349843989,0.339429146,0.265259423,0.382265434,2.690149776,0.072828664,0.22857582,-11.8833925,1.440281178,1200,154.134228422864,"freestall lanes",0.000968938473368082,0.3209
"2020-01-15 11:52:00",7.33024423259466,60,1.82480869630096,0.235581789692936,0.144911519017896,0.035137525615858,0.00453623505123848,-48.3311476534147,1.038535375749,0.134074340490772,920.48835951931,87.5806620791308,-0.0133966666666667,0.00453382641053933,-0.00191333333333333,0.000725671323711015,0.988993333333333,0.0143270499957919,1.602885753,-0.04312486,11.18435743,0.366675074,0.227625861,0.210044484,0.263490226,2.267564627,0.019195549,0.109016668,-4.89078438,1.618305881,1199,129.921882900257,"corrals",0.0010769450848679,0.3209
"2020-01-15 11:53:00",5.60479094402131,60,0.150577533502787,0.0194394759856427,0.178546295234163,0.00482812471461836,0.000623308220437644,-51.1908999951803,1.10770254602975,0.143003783777492,728.106451755963,16.1774256631492,-0.01288,0.00450065155358418,-0.00229333333333333,0.000791451502131362,0.939703333333333,0.00787217728085711,1.40755188,-0.088163459,11.04929379,0.234909081,0.338996345,0.131174387,0.166773992,2.551103802,0.009961665,0.071013029,-2.603611586,1.452470183,1200,146.167480954378,"corrals",0.0010769450848679,0.3209
"2020-01-15 11:54:00",6.19103840406276,58,0.241165871644654,0.0316666303331652,0.161764499895975,0.00629021349419312,0.00082594549584859,-53.0066263292818,1.43099870830084,0.187899335813854,643.950717292497,34.3220521902469,-0.0131034482758621,0.00478949748370332,-0.00211034482758621,0.00075270032133958,0.929972413793103,0.00109445061175039,0.916869275,-0.021669417,11.1071731,0.262299421,0.30955918,0.164916461,0.161074041,2.431672028,0.006160346,0.092510993,-9.310164394,0.962385904,1201,139.324544364418,"corrals",0.0010769450848679,0.3209
"2020-01-15 11:55:00",7.88504640730521,60,0.649054222638173,0.0837925398354415,0.127717282019647,0.011078883114905,0.00143027765995352,-56.6092852780413,1.23511803340256,0.159453052465619,619.875327985867,28.8455430367494,-0.0136633333333333,0.00572407839274828,-0.00176,0.000792592827264106,0.934883333333333,0.00528278838373681,0.382016369,-0.024661999,11.26466003,0.160229573,0.151402974,0.144858825,0.196879032,2.742252319,0.010434033,0.103530371,-7.708574904,0.409566508,1199,157.119484238663,"corrals",0.0010769450848679,0.3209
"2020-01-15 11:56:00",5.99656117396655,60,1.30306984152062,0.168225593171816,0.174633607140993,0.0374531817732067,0.00483518497567029,-52.7376364757235,2.87609350485639,0.371302074881471,602.105096406217,39.9593871358269,-0.0134,0.00447236334596207,-0.00235333333333333,0.000991739896645723,0.94518,0.00738020256026273,0.259292475,0.042654333,11.50634462,0.191339438,0.405309659,0.264303274,0.197895016,3.032111024,0.019300872,0.162791322,-16.21469136,0.421836113,1200,173.72716469029,"corrals",0.0010769450848679,0.3209
"2020-01-15 11:57:00",4.43355114711269,60,0.38828063999125,0.0501268150780289,0.227214693280076,0.0193564825927068,0.00249891115742357,-45.6910342934521,2.05730767150921,0.265597278325997,639.482412208336,32.9858366512314,-0.0126,0.00448915831452638,-0.00285333333333333,0.00099583312649219,0.91967,0.00248427597473471,0.870818652,-0.030072387,11.31565245,0.282192184,0.220613904,0.17860956,0.220430993,2.582633558,0.023270108,0.120768376,-5.487343078,0.90191868,1201,147.974002902255,"corrals",0.0010769450848679,0.3209
"2020-01-15 11:58:00",5.3228982382853,60,0.572107541265549,0.0738587659853714,0.190149562900874,0.0216601706545774,0.00279631600737296,-48.976337534912,2.00240168192223,0.258508945550084,624.653702186016,29.3424113171667,-0.01458,0.00307492868871426,-0.00274,0.000553938135198434,0.910496666666667,0.00395692770165922,1.965314871,-0.040273986,11.12112172,0.371631235,0.236800212,0.184942705,0.276910869,2.20238768,0.01520179,0.084324828,-2.857428841,1.98172378,1199,126.187518915609,"corrals",0.0010769450848679,0.3209
"2020-01-15 11:59:00",4.33850230729173,61,0.0531355130600979,0.00680330530584858,0.230528506449717,0.00284076072721395,0.000363722140148379,-48.0092008755635,1.54255720375495,0.197504211486796,514.904328271515,27.2905495167233,-0.0132065573770492,0.00441712081385069,-0.00304098360655738,0.00100786524383311,0.901091803278689,0.00118198915420394,1.461390108,-0.051700913,11.29181248,0.348139095,0.424936201,0.239169052,0.351463061,2.356104222,0.031860172,0.125656218,-4.514069764,1.527171394,1200,134.994828013554,"corrals",0.0010769450848679,0.3209
"2020-01-15 12:00:00",4.67242945970653,59,0.47320506210819,0.0616060517064784,0.216127459439456,0.0212003243326298,0.00276004713730534,-50.4004438675168,2.60821734557131,0.339560975821224,497.243438170678,19.6809039880244,-0.0118203389830508,0.00509166931711334,-0.0025406779661017,0.00109986184776149,0.915972881355932,0.00981455341806368,1.474509915,0.003633274,11.5934184,0.258193424,0.483950727,0.18251777,0.30339335,2.465247864,0.023643976,0.118585871,-5.118032346,1.561160235,1201,141.248298060841,"corrals",0.0010769450848679,0.3209
"2020-01-15 12:01:00",5.71399663786185,60,0.122073943979571,0.0157596784012912,0.175087680389061,0.00375270776006672,0.000484472488597392,-53.1795573535229,1.2681237640663,0.163714073971954,548.458890016187,6.59865913157934,-0.01381,0.00364513606730291,-0.00241,0.000635849891677087,0.94274,0.00483038406024735,1.627515653,0.021306417,11.29811958,0.224900694,0.200374342,0.190792708,0.304740469,2.261423012,0.036540445,0.118379279,-3.29099565,1.639854589,1199,129.569994281363,"corrals",0.0010769450848679,0.3209
"2020-01-15 12:02:00",5.41778263723692,60,0.0565509054419984,0.00730069049966034,0.184597083399567,0.00192194061537927,0.000248121466525452,-51.6890580347474,1.25011229706703,0.16138880358099,579.959418269035,16.5686105659736,-0.01189,0.00600611834940993,-0.00219,0.00111609184969211,0.95097,0.0029599759504291,0.975864016,0.081690344,11.80212531,0.213186159,0.216379447,0.174939197,0.485254746,2.705976994,0.039342031,0.076181665,-0.816088965,1.005030582,1200,155.041061215697,"corrals",0.0010769450848679,0.3209
"2020-01-15 12:03:00",5.55016416758338,59,0.118605911813853,0.0154411744949332,0.18025577682192,0.00385283834193092,0.000501596827921149,-51.9716372405921,0.883197386926763,0.114982505985105,648.436963313198,19.1001438394071,-0.0149627118644068,0.00507590312348401,-0.00268983050847458,0.000913065113675802,0.965872881355932,0.00522701307560805,0.457817086,0.023383402,11.56909053,0.203744097,0.156934553,0.142114951,0.300498261,3.205637336,0.023268598,0.075726435,-1.354128594,0.502456984,1201,183.669490002361,"corrals",0.0010769450848679,0.3209
"2020-01-15 12:04:00",6.49144905077272,60,0.564979443012258,0.0729385324578672,0.15520126585636,0.0134862357538222,0.00174106554925268,-54.0426744307981,1.60648015052095,0.207395695632681,669.592313439833,12.2103651585017,-0.0149483333333333,0.00429704240685703,-0.002325,0.000713935143994543,0.982455,0.00424121924427,0.767264827,-0.051893063,11.57167476,0.205806592,0.254609439,0.17217266,0.197372423,2.982317772,0.019012036,0.058221072,-0.753188166,0.803930106,1199,170.874221502459,"corrals",0.0010769450848679,0.3209
"2020-01-15 12:05:00",8.15694813072672,60,0.624625815068476,0.0806388459790481,0.1233183134015,0.00961743735569085,0.00124160582372612,-56.444489000461,0.922373738353968,0.119077937587466,633.108771697833,10.8514680649007,-0.0140583333333333,0.00468851071965945,-0.00173833333333333,0.000603125100626437,0.990736666666667,0.00145170462825038,1.17705309,-0.077028736,11.362314,0.195122873,0.28389851,0.169259208,0.211654509,2.709614244,0.009455877,0.130540873,-17.05728019,1.214466709,1201,155.249460289731,"corrals",0.0010769450848679,0.3209
"2020-01-15 12:06:00",7.96018791132018,59,0.260771062550617,0.0339495006487771,0.125758082971842,0.00412821645199359,0.000537448004178166,-55.9848827224331,0.923002775844331,0.120164726219451,618.985407759693,14.5595196918072,-0.0147762711864407,0.0049616230305822,-0.00183898305084746,0.000613080674545265,0.981722033898305,0.00360847029375331,1.417308304,0.16534686,11.66505941,0.260545268,0.66596758,0.233622101,0.318139323,2.594718866,0.043535639,0.133594356,-3.975148469,1.552289153,1200,148.666440044771,"corrals",0.0010769450848679,0.3209
"2020-01-15 12:07:00",8.93034461722862,60,0.975179230580316,0.125895097320164,0.113168132920637,0.0111085584371419,0.00143410872758075,-56.6464380368673,1.2353559084258,0.159483761999068,646.416490976713,28.5078901590868,-0.0145533333333333,0.00520415305689101,-0.00163666666666667,0.000590594835642004,0.97829,0.00302625236717471,1.177047223,0.126918429,11.69101108,0.185653902,0.267522392,0.162533603,0.274506296,2.519160574,0.009660617,0.12291779,-13.95445546,1.203690737,1199,144.337268805954,"corrals",0.0010769450848679,0.3209
"2020-01-15 12:08:00",9.03943390481715,60,1.19156822060041,0.153830795808513,0.112532985667227,0.0147995248367368,0.00191061044081549,-56.3819261263676,1.5069537881964,0.194546897506294,675.730315879935,22.1812955316028,-0.01404,0.00491849501578877,-0.00156333333333333,0.000548948661323044,1.00457,0.00641571957204482,1.349209591,-0.01707181,11.6632886,0.276416388,0.429086922,0.204323664,0.234690798,2.447597585,0.019817956,0.134345649,-8.880618364,1.417578,1201,140.237011566913,"corrals",0.0010769450848679,0.3209
"2020-01-15 12:09:00",7.37627216657251,59,0.427333831540383,0.0556341261535053,0.136006473380599,0.00767264153372524,0.000998892845621927,-54.6347148094109,1.07414056063107,0.139841189828891,642.956771569105,8.56526180902663,-0.0131610169491525,0.00460812688960951,-0.0017864406779661,0.000631762075227759,1.0033813559322,0.00649510358220268,0.928626814,0.062866469,11.80746245,0.247711155,0.302876709,0.165808882,0.259227103,1.738481952,0.020238006,0.10007535,-3.596372414,0.97337132,1199,99.607678609265,"corrals",0.0010769450848679,0.3209
"2020-01-15 12:10:00",7.36056140945482,60,0.577462996976715,0.074550152344728,0.136700353843118,0.0109272614195795,0.00141070338325621,-54.9795979410271,1.22429387790025,0.158055659999045,623.568366889323,7.45801123215017,-0.015115,0.0044547755750126,-0.00206666666666667,0.000632366195846772,0.98551,0.00407542032770334,1.038439041,-0.040061886,11.73341013,0.278589128,0.250324893,0.16861656,0.282935923,2.09563428,0.020516592,0.079413132,-1.772188503,1.070512589,1200,120.070999646937,"corrals",0.0010769450848679,0.3209
"2020-01-15 12:11:00",8.51839619497243,60,1.47829771402375,0.190847414238349,0.121192329394874,0.02242098895585,0.00289453722771692,-55.9918683426517,1.75785715253488,0.226938382559306,617.893682493566,9.55654281744384,-0.01412,0.00544002118639942,-0.00168166666666667,0.000628825018550314,0.96313,0.00909779820634584,1.685383306,0.081419936,12.13641761,0.30689211,0.480395128,0.271908398,0.54176004,2.459189099,0.068452866,0.098724997,-1.021978721,1.764507377,1201,140.90115639728,"corrals",0.0010769450848679,0.3209
"2020-01-15 12:12:00",7.94835644187508,60,0.330084360766938,0.0426137077364624,0.126025134713996,0.0052179127764345,0.000673629642836457,-55.0964031278999,0.853358502855385,0.11016810899678,661.59289351812,10.1879042968354,-0.0161366666666667,0.00472153259614896,-0.00202166666666667,0.000565712889588285,0.953,0.0048796359964271,1.588613672,0.043793747,11.87604747,0.280797798,0.74869597,0.264915551,0.314781076,2.853547277,0.040019996,0.231997365,-22.66353564,1.751717468,1199,163.496215613148,"corrals",0.0010769450848679,0.3209
"2020-01-15 12:13:00",10.1494074283518,60,1.13240127261843,0.146192375669175,0.099768155984551,0.0113312846281443,0.00146286255519796,-56.9889278345156,1.38450545817788,0.178738886075207,691.790400922843,4.85440145707237,-0.0151183333333333,0.00489040886532573,-0.001485,0.000490183293286245,0.986358333333333,0.0113500734212016,1.515749749,-0.115144368,11.46325225,0.223713359,0.161229368,0.149594014,0.093762296,2.704979286,0.003102199,0.074433277,-9.641795361,1.524987954,1200,154.983896758111,"corrals",0.0010769450848679,0.3209
"2020-01-15 12:14:00",10.9332030236885,59,0.434387367990157,0.0565524183824649,0.0916073735642359,0.00365895459512563,0.000476355314067687,-57.8074147960695,0.798549762774125,0.103962323979559,728.398073391842,16.7977350664363,-0.0150694915254237,0.00531404301688195,-0.00137457627118644,0.000501581368356529,1.01009830508475,0.00767392565827731,0.460626012,0.054294971,11.77236589,0.127905873,0.207336411,0.155957703,0.299139957,2.717600592,0.018800639,0.117043674,-6.192539198,0.510624002,1201,155.707044323854,"corrals",0.0010769450848679,0.3209
"2020-01-15 12:15:00",10.3797462572184,59,0.137011756173764,0.0178374113278325,0.0963581662519589,0.00128685040751717,0.000167533653149889,-57.1934232002952,0.712163544902738,0.0927157963511306,781.689886846946,32.7576733389042,-0.0155559322033898,0.00463570368822033,-0.0015,0.000451052409218784,1.03149661016949,0.00485038093426497,1.105675558,0.140611616,12.05566933,0.353115079,0.244435859,0.198337021,0.309194851,4.04548592,0.017782394,0.178630626,-23.2973593,1.13750323,1199,231.789269295599,"corrals",0.0010769450848679,0.3209
"2020-01-15 12:16:00",9.96208144145106,58,0.0312772706549408,0.00410690683928836,0.100381595533713,0.000313292240179916,4.11372865006562e-05,-57.1348510046111,0.631417271127902,0.0829091495178251,881.778353116693,12.0479513222098,-0.0151793103448276,0.00491234601546762,-0.00151724137931034,0.000491020395129522,1.04630344827586,0.00424222572818288,1.142747308,-0.057832077,11.78989433,0.136970094,0.156650788,0.124950555,0.102788406,3.83065519,0.005875963,0.072850634,-4.777989947,1.154372044,1200,219.480375156884,"corrals",0.0010769450848679,0.3209